KAITUO 1B
1 40912U 15049P   18045.86383196 +.00001003 +00000-0 +51851-4 0  9995
2 40912 097.4508 054.9418 0017318 078.3481 041.5858 15.18439379133102
TIANWANG 1C (TW-1C)
1 40926U 15051B   18046.15439931  .00006486  00000-0  12988-3 0  9992
2 40926  97.2005  89.1306 0011095  15.2804  18.5643 15.47024383134438
TIANWANG 1B (TW-1B)
1 40927U 15051C   18046.34355530  .00006186  00000-0  12906-3 0  9993
2 40927  97.2092  89.2169 0011386  24.8462  34.3576 15.45843474134385
TIANWANG 1A (TW-1A)
1 40928U 15051D   18045.85795374 +.00002635 +00000-0 +72557-4 0  9997
2 40928 097.2009 082.2218 0013787 049.0724 070.4225 15.37952765133970
LAPAN A2
1 40931U 15052B   18046.20741897  .00000607  00000-0 -45790-5 0  9991
2 40931   5.9993 299.8917 0013052  80.4241 279.7361 14.76564136128941
LQSAT
1 40958U 15057A   18046.36961534  .00000019  00000-0  10789-4 0  9999
2 40958  97.9532 122.1221 0018543  12.6011 347.5657 14.73015470126914
CHUBUSAT 2
1 41338U 16012B   18046.06756303  .00000364  00000-0  21799-4 0  9993
2 41338  31.0039   9.4974 0013778 301.9327  58.0010 14.99918644109482
CHUBUSAT 3
1 41339U 16012C   18046.29636541  .00000350  00000-0  20545-4 0  9993
2 41339  31.0107   6.8120 0013705 312.6859  47.2608 15.00110670109504
OUFTI-1
1 41458U 16025C   18046.32543655  .00000612  00000-0  36557-4 0  9997
2 41458  98.1515 102.5966 0170906 195.6167 163.9747 15.04237058 99112
E-STAR-2
1 41459U 16025D   18045.84611506 +.00000657 +00000-0 +39112-4 0  9994
2 41459 098.1510 101.9774 0171510 197.9556 161.5553 15.03991644099034
AAUSAT 4
1 41460U 16025E   18046.33376412  .00001428  00000-0  78499-4 0  9993
2 41460  98.1478 102.8166 0163862 192.9142 166.7861 15.05282053 99152
NUSAT 1
1 41557U 16033B   18045.85005999  .00001600  00000-0  61253-4 0  9996
2 41557  97.4440 130.2724 0012754 225.4459 134.5740 15.27989745 95477
BEESAT 4
1 41619U 16040W   18045.71213958  .00001489  00000-0  68769-4 0  9998
2 41619  97.4314 110.4815 0010277 304.0082  56.0177 15.21739553 79468
PRATHAM
1 41783U 16059A   18045.84258297  .00000064  00000-0  21760-4 0  9997
2 41783  98.1347 109.2794 0034821 118.9139 241.5563 14.62900122 74070
ALSAT 1N
1 41789U 16059G   18046.31265073  .00000058  00000-0  20146-4 0  9996
2 41789  98.1348 110.7198 0029876 109.9928 250.4497 14.64126446 74180
NAYIF 1
1 42017U 17008BX  18045.92440396 +.00001711 +00000-0 +73502-4 0  9996
2 42017 097.4641 111.6435 0008153 090.8850 269.3321 15.24031771055440
LILACSAT-1
1 42725U 98067ME  18046.39676997  .00016124  00000-0  17401-3 0  9995
2 42725  51.6359 256.6608 0005651 137.9023 222.2407 15.63806103 41429
MAX VALIER SAT
1 42778U 17036P   18046.42021294  .00001114  00000-0  53226-4 0  9997
2 42778  97.4203 108.0692 0014045 132.0993 228.1439 15.21032991 35990
